When you browse on this site, cookies collect data to enhance your experience and personalize the content and advertising you see.
Visit our Privacy Policy to learn more. By continuing to use the site, you agree to this use of cookies and data.
  • In United Kingdom
  • List of Countries
  • For 7 days
  • Water Temperature
  • Satellite Maps
  • Weather Map
  • Weather Widgets
  • user-avatar
    Login

    Hourly Weather Trashigang

    Today, 22 January, Tuesday

    Time Temperature Precipitation Wind Pressure Humidity
    00:00 +6°C° 0 mm 2 mps 627 mmHg 56%
    01:00 +6°C° 0 mm 2 mps 626 mmHg 54%
    02:00 +6°C° 0 mm 2 mps 626 mmHg 52%
    03:00 +5°C° 0 mm 2 mps 626 mmHg 50%
    04:00 +5°C° 0 mm 2 mps 627 mmHg 46%
    05:00 +5°C° 0 mm 2 mps 627 mmHg 43%
    06:00 +5°C° 0 mm 2 mps 626 mmHg 46%
    07:00 +8°C° 0 mm 1 mps 628 mmHg 39%
    08:00 +11°C° 0 mm 1 mps 629 mmHg 32%
    09:00 +14°C° 0 mm 1 mps 630 mmHg 25%
    10:00 +16°C° 0 mm 1 mps 630 mmHg 26%
    11:00 +17°C° 0 mm 2 mps 630 mmHg 27%
    12:00 +18°C° 0 mm 2 mps 630 mmHg 27%
    13:00 +18°C° 0 mm 2 mps 630 mmHg 31%
    14:00 +17°C° 0 mm 2 mps 629 mmHg 34%
    15:00 +17°C° 0 mm 2 mps 629 mmHg 37%
    16:00 +14°C° 0 mm 1 mps 628 mmHg 46%
    17:00 +11°C° 0 mm 1 mps 627 mmHg 56%
    18:00 +9°C° 0 mm 1 mps 626 mmHg 66%
    19:00 +8°C° 0 mm 1 mps 627 mmHg 60%
    20:00 +7°C° 0 mm 2 mps 627 mmHg 55%
    21:00 +6°C° 0 mm 2 mps 627 mmHg 49%
    22:00 +6°C° 0 mm 2 mps 627 mmHg 44%
    23:00 +6°C° 0 mm 2 mps 627 mmHg 39%

    Tomorrow, 23 January, Wednesday

    Time Temperature Precipitation Wind Pressure Humidity
    00:00 +6°C° 0 mm 2 mps 627 mmHg 34%
    01:00 +5°C° 0 mm 2 mps 627 mmHg 33%
    02:00 +5°C° 0 mm 2 mps 627 mmHg 32%
    03:00 +5°C° 0 mm 2 mps 626 mmHg 31%
    04:00 +5°C° 0 mm 2 mps 626 mmHg 31%
    05:00 +5°C° 0 mm 2 mps 626 mmHg 31%
    06:00 +5°C° 0 mm 2 mps 626 mmHg 31%
    07:00 +8°C° 0 mm 2 mps 628 mmHg 28%
    08:00 +12°C° 0 mm 1 mps 629 mmHg 24%
    09:00 +14°C° 0 mm 1 mps 630 mmHg 21%
    10:00 +16°C° 0 mm 1 mps 630 mmHg 22%
    11:00 +18°C° 0 mm 1 mps 630 mmHg 23%
    12:00 +18°C° 0 mm 2 mps 631 mmHg 24%
    13:00 +18°C° 0 mm 2 mps 630 mmHg 28%
    14:00 +17°C° 0 mm 2 mps 629 mmHg 31%
    15:00 +17°C° 0 mm 2 mps 628 mmHg 34%
    16:00 +14°C° 0 mm 2 mps 628 mmHg 43%
    17:00 +11°C° 0 mm 1 mps 627 mmHg 52%
    18:00 +9°C° 0 mm 1 mps 626 mmHg 61%
    19:00 +9°C° 0 mm 1 mps 627 mmHg 55%
    20:00 +7°C° 0 mm 2 mps 627 mmHg 49%
    21:00 +7°C° 0 mm 2 mps 628 mmHg 43%
    22:00 +7°C° 0 mm 2 mps 628 mmHg 42%
    23:00 +6°C° 0 mm 2 mps 627 mmHg 42%

    Day after tomorrow, 24 January, Thursday

    Time Temperature Precipitation Wind Pressure Humidity
    00:00 +6°C° 0 mm 2 mps 627 mmHg 42%
    01:00 +6°C° 0 mm 2 mps 627 mmHg 42%
    02:00 +5°C° 0 mm 2 mps 627 mmHg 43%
    03:00 +5°C° 0 mm 2 mps 627 mmHg 44%
    04:00 +5°C° 0 mm 2 mps 627 mmHg 44%
    05:00 +5°C° 0 mm 2 mps 627 mmHg 44%
    06:00 +5°C° 0 mm 2 mps 627 mmHg 43%
    07:00 +8°C° 0 mm 2 mps 628 mmHg 37%
    08:00 +11°C° 0 mm 1 mps 630 mmHg 31%
    09:00 +14°C° 0 mm 1 mps 631 mmHg 25%
    10:00 +16°C° 0 mm 1 mps 631 mmHg 25%
    11:00 +18°C° 0 mm 1 mps 631 mmHg 25%
    12:00 +20°C° 0 mm 1 mps 631 mmHg 25%
    13:00 +19°C° 0 mm 1 mps 631 mmHg 28%
    14:00 +18°C° 0 mm 2 mps 630 mmHg 31%
    15:00 +17°C° 0 mm 2 mps 629 mmHg 34%
    16:00 +14°C° 0 mm 1 mps 628 mmHg 43%
    17:00 +11°C° 0 mm 1 mps 628 mmHg 52%
    18:00 +8°C° 0 mm 1 mps 627 mmHg 61%
    19:00 +8°C° 0 mm 1 mps 627 mmHg 55%
    20:00 +6°C° 0 mm 2 mps 628 mmHg 49%
    21:00 +6°C° 0 mm 2 mps 628 mmHg 44%
    22:00 +6°C° 0 mm 2 mps 628 mmHg 40%
    23:00 +6°C° 0 mm 2 mps 628 mmHg 36%

    25 January, Friday

    Time Temperature Precipitation Wind Pressure Humidity
    00:00 +5°C° 0 mm 2 mps 628 mmHg 32%
    01:00 +5°C° 0 mm 2 mps 628 mmHg 31%
    02:00 +5°C° 0 mm 2 mps 628 mmHg 29%
    03:00 +5°C° 0 mm 2 mps 628 mmHg 27%
    04:00 +5°C° 0 mm 2 mps 628 mmHg 27%
    05:00 +5°C° 0 mm 2 mps 628 mmHg 27%
    06:00 +5°C° 0 mm 2 mps 628 mmHg 27%
    07:00 +8°C° 0 mm 2 mps 629 mmHg 24%
    08:00 +12°C° 0 mm 1 mps 631 mmHg 21%
    09:00 +15°C° 0 mm 1 mps 632 mmHg 18%
    10:00 +16°C° 0 mm 1 mps 632 mmHg 18%
    11:00 +19°C° 0 mm 1 mps 632 mmHg 19%
    12:00 +19°C° 0 mm 2 mps 632 mmHg 19%
    13:00 +19°C° 0 mm 2 mps 632 mmHg 23%
    14:00 +18°C° 0 mm 2 mps 631 mmHg 26%
    15:00 +17°C° 0 mm 2 mps 630 mmHg 30%
    16:00 +15°C° 0 mm 1 mps 630 mmHg 37%
    17:00 +13°C° 0 mm 1 mps 629 mmHg 45%
    18:00 +11°C° 0 mm 1 mps 629 mmHg 52%
    19:00 +10°C° 0 mm 1 mps 629 mmHg 51%
    20:00 +9°C° 0 mm 2 mps 630 mmHg 49%
    21:00 +8°C° 0 mm 2 mps 630 mmHg 47%
    22:00 +8°C° 0 mm 2 mps 630 mmHg 49%
    23:00 +8°C° 0 mm 2 mps 630 mmHg 51%

    26 January, Saturday

    Time Temperature Precipitation Wind Pressure Humidity
    00:00 +7°C° 0 mm 2 mps 629 mmHg 52%
    01:00 +7°C° 0 mm 2 mps 629 mmHg 54%
    02:00 +7°C° 0 mm 2 mps 629 mmHg 55%
    03:00 +7°C° 0 mm 2 mps 628 mmHg 57%
    04:00 +7°C° 0.2 mm 2 mps 629 mmHg 60%
    05:00 +8°C° 0.2 mm 2 mps 629 mmHg 63%
    06:00 +8°C° 0.2 mm 2 mps 629 mmHg 65%
    07:00 +9°C° 0.4 mm 2 mps 630 mmHg 66%
    08:00 +9°C° 0.4 mm 2 mps 631 mmHg 66%
    09:00 +10°C° 0.4 mm 2 mps 631 mmHg 66%
    10:00 +13°C° 0.3 mm 1 mps 632 mmHg 62%
    11:00 +14°C° 0.3 mm 1 mps 632 mmHg 58%
    12:00 +16°C° 0.3 mm 1 mps 632 mmHg 55%
    13:00 +15°C° 0.4 mm 1 mps 631 mmHg 56%
    14:00 +15°C° 0.4 mm 1 mps 631 mmHg 57%
    15:00 +15°C° 0.4 mm 1 mps 630 mmHg 59%
    16:00 +13°C° 0.3 mm 1 mps 629 mmHg 64%
    17:00 +12°C° 0.3 mm 1 mps 629 mmHg 69%
    18:00 +10°C° 0.3 mm 1 mps 629 mmHg 74%
    19:00 +10°C° 0.3 mm 1 mps 629 mmHg 73%
    20:00 +8°C° 0.3 mm 2 mps 629 mmHg 73%
    21:00 +8°C° 0.3 mm 2 mps 630 mmHg 72%
    22:00 +8°C° 0.3 mm 2 mps 630 mmHg 72%
    23:00 +8°C° 0.3 mm 2 mps 629 mmHg 71%

    27 January, Sunday

    Time Temperature Precipitation Wind Pressure Humidity
    00:00 +8°C° 0.3 mm 2 mps 629 mmHg 71%
    01:00 +8°C° 0.1 mm 2 mps 629 mmHg 70%
    02:00 +7°C° 0.1 mm 2 mps 629 mmHg 70%
    03:00 +7°C° 0.1 mm 2 mps 628 mmHg 70%
    04:00 +7°C° 0 mm 2 mps 628 mmHg 69%
    05:00 +7°C° 0 mm 2 mps 628 mmHg 68%
    06:00 +7°C° 0 mm 2 mps 629 mmHg 68%
    07:00 +9°C° 0 mm 2 mps 630 mmHg 63%
    08:00 +12°C° 0 mm 2 mps 631 mmHg 58%
    09:00 +14°C° 0 mm 1 mps 632 mmHg 53%
    10:00 +15°C° 0 mm 1 mps 632 mmHg 51%
    11:00 +18°C° 0 mm 1 mps 633 mmHg 49%
    12:00 +20°C° 0 mm 1 mps 633 mmHg 47%
    13:00 +19°C° 0 mm 1 mps 632 mmHg 48%
    14:00 +19°C° 0 mm 1 mps 631 mmHg 49%
    15:00 +18°C° 0 mm 1 mps 630 mmHg 50%
    16:00 +15°C° 0 mm 1 mps 630 mmHg 55%
    17:00 +12°C° 0 mm 1 mps 629 mmHg 59%
    18:00 +10°C° 0 mm 1 mps 628 mmHg 64%
    19:00 +8°C° 0 mm 2 mps 629 mmHg 61%
    20:00 +8°C° 0 mm 2 mps 629 mmHg 59%
    21:00 +7°C° 0 mm 2 mps 629 mmHg 56%
    22:00 +7°C° 0 mm 2 mps 629 mmHg 56%
    23:00 +7°C° 0 mm 2 mps 629 mmHg 55%
    Show more